Year,Month,Day,Hour,Minute,Value (Times are PST for windgust in km/hr)
2016,10,09,00,06,1.60
2016,10,09,00,08,1.60
2016,10,09,00,10,1.60
2016,10,09,00,22,1.60
2016,10,09,00,23,1.60
2016,10,09,00,24,1.60
2016,10,09,00,25,1.60
2016,10,09,00,26,1.60
2016,10,09,00,28,3.20
2016,10,09,00,29,3.20
2016,10,09,00,30,3.20
2016,10,09,00,31,3.20
2016,10,09,00,32,3.20
2016,10,09,00,33,4.80
2016,10,09,00,34,4.80
2016,10,09,00,35,4.80
2016,10,09,00,36,4.80
2016,10,09,00,37,4.80
2016,10,09,00,38,4.80
2016,10,09,00,39,6.40
2016,10,09,00,40,6.40
2016,10,09,00,41,4.80
2016,10,09,00,42,3.20
2016,10,09,00,43,3.20
2016,10,09,00,44,3.20
2016,10,09,00,45,3.20
2016,10,09,00,46,3.20
2016,10,09,00,47,3.20
2016,10,09,00,48,3.20
2016,10,09,00,49,1.60
2016,10,09,00,50,3.20
2016,10,09,00,51,3.20
2016,10,09,00,52,4.80
2016,10,09,00,53,3.20
2016,10,09,00,54,3.20
2016,10,09,00,55,3.20
2016,10,09,00,56,4.80
2016,10,09,00,57,4.80
2016,10,09,00,58,4.80
2016,10,09,00,59,6.40
2016,10,09,01,00,4.80
2016,10,09,01,01,4.80
2016,10,09,01,02,4.80
2016,10,09,01,03,3.20
2016,10,09,01,04,1.60
2016,10,09,01,05,4.80
2016,10,09,01,06,4.80
2016,10,09,01,07,4.80
2016,10,09,01,08,3.20
2016,10,09,01,09,3.20
2016,10,09,01,10,3.20
2016,10,09,01,11,3.20
2016,10,09,01,12,1.60
2016,10,09,01,13,3.20
2016,10,09,01,14,3.20
2016,10,09,01,15,4.80
2016,10,09,01,16,4.80
2016,10,09,01,17,3.20
2016,10,09,01,18,3.20
2016,10,09,01,19,4.80
2016,10,09,01,20,4.80
2016,10,09,01,21,4.80
2016,10,09,01,22,4.80
2016,10,09,01,23,4.80
2016,10,09,01,24,1.60
2016,10,09,01,25,4.80
2016,10,09,01,26,4.80
2016,10,09,01,27,4.80
2016,10,09,01,28,4.80
2016,10,09,01,29,3.20
2016,10,09,01,30,1.60
2016,10,09,01,31,3.20
2016,10,09,01,32,4.80
2016,10,09,01,33,4.80
2016,10,09,01,34,4.80
2016,10,09,01,35,4.80
2016,10,09,01,36,6.40
2016,10,09,01,37,6.40
2016,10,09,01,38,4.80
2016,10,09,01,39,6.40
2016,10,09,01,40,4.80
2016,10,09,01,41,4.80
2016,10,09,01,42,4.80
2016,10,09,01,43,4.80
2016,10,09,01,44,4.80
2016,10,09,01,45,6.40
2016,10,09,01,46,4.80
2016,10,09,01,47,3.20
2016,10,09,01,48,4.80
2016,10,09,01,49,4.80
2016,10,09,01,50,4.80
2016,10,09,01,51,4.80
2016,10,09,01,52,1.60
2016,10,09,01,53,1.60
2016,10,09,01,54,3.20
2016,10,09,01,55,1.60
2016,10,09,01,56,1.60
2016,10,09,01,57,4.80
2016,10,09,01,58,4.80
2016,10,09,01,59,6.40
2016,10,09,02,00,4.80
2016,10,09,02,01,4.80
2016,10,09,02,02,4.80
2016,10,09,02,03,3.20
2016,10,09,02,04,3.20
2016,10,09,02,05,4.80
2016,10,09,02,06,4.80
2016,10,09,02,07,6.40
2016,10,09,02,08,4.80
2016,10,09,02,09,3.20
2016,10,09,02,10,4.80
2016,10,09,02,11,4.80
2016,10,09,02,12,4.80
2016,10,09,02,13,4.80
2016,10,09,02,14,4.80
2016,10,09,02,15,4.80
2016,10,09,02,16,4.80
2016,10,09,02,17,4.80
2016,10,09,02,18,4.80
2016,10,09,02,19,3.20
2016,10,09,02,20,3.20
2016,10,09,02,21,3.20
2016,10,09,02,22,3.20
2016,10,09,02,23,3.20
2016,10,09,02,24,4.80
2016,10,09,02,25,3.20
2016,10,09,02,26,3.20
2016,10,09,02,27,3.20
2016,10,09,02,28,1.60
2016,10,09,02,32,6.40
2016,10,09,02,33,6.40
2016,10,09,02,34,4.80
2016,10,09,02,35,1.60
2016,10,09,02,36,1.60
2016,10,09,02,37,1.60
2016,10,09,02,38,1.60
2016,10,09,02,39,3.20
2016,10,09,02,40,3.20
2016,10,09,02,41,3.20
2016,10,09,02,42,4.80
2016,10,09,02,43,6.40
2016,10,09,02,44,6.40
2016,10,09,02,45,6.40
2016,10,09,02,46,4.80
2016,10,09,02,47,4.80
2016,10,09,02,48,3.20
2016,10,09,02,49,3.20
2016,10,09,02,50,3.20
2016,10,09,02,51,3.20
2016,10,09,02,52,3.20
2016,10,09,02,53,3.20
2016,10,09,02,54,3.20
2016,10,09,02,55,4.80
2016,10,09,02,56,4.80
2016,10,09,02,57,6.40
2016,10,09,02,58,4.80
2016,10,09,02,59,4.80
2016,10,09,03,00,4.80
2016,10,09,03,01,3.20
2016,10,09,03,02,3.20
2016,10,09,03,03,3.20
2016,10,09,03,04,1.60
2016,10,09,03,05,3.20
2016,10,09,03,06,3.20
2016,10,09,03,07,1.60
2016,10,09,03,08,3.20
2016,10,09,03,09,3.20
2016,10,09,03,10,3.20
2016,10,09,03,11,3.20
2016,10,09,03,12,4.80
2016,10,09,03,13,3.20
2016,10,09,03,14,6.40
2016,10,09,03,15,4.80
2016,10,09,03,16,4.80
2016,10,09,03,17,4.80
2016,10,09,03,18,4.80
2016,10,09,03,19,6.40
2016,10,09,03,20,6.40
2016,10,09,03,21,4.80
2016,10,09,03,22,6.40
2016,10,09,03,23,4.80
2016,10,09,03,24,4.80
2016,10,09,03,25,4.80
2016,10,09,03,26,4.80
2016,10,09,03,27,3.20
2016,10,09,03,28,4.80
2016,10,09,03,29,4.80
2016,10,09,03,30,4.80
2016,10,09,03,31,4.80
2016,10,09,03,32,4.80
2016,10,09,03,33,6.40
2016,10,09,03,34,4.80
2016,10,09,03,35,4.80
2016,10,09,03,36,9.60
2016,10,09,03,37,6.40
2016,10,09,03,38,6.40
2016,10,09,03,39,6.40
2016,10,09,03,40,6.40
2016,10,09,03,41,6.40
2016,10,09,03,42,6.40
2016,10,09,03,43,4.80
2016,10,09,03,44,4.80
2016,10,09,03,45,1.60
2016,10,09,03,46,3.20
2016,10,09,03,47,4.80
2016,10,09,03,48,6.40
2016,10,09,03,49,8.10
2016,10,09,03,50,6.40
2016,10,09,03,51,6.40
2016,10,09,03,52,4.80
2016,10,09,03,53,6.40
2016,10,09,03,54,6.40
2016,10,09,03,55,11.30
2016,10,09,03,56,9.60
2016,10,09,03,57,9.60
2016,10,09,03,58,4.80
2016,10,09,03,59,3.20
2016,10,09,04,00,3.20
2016,10,09,04,01,4.80
2016,10,09,04,02,6.40
2016,10,09,04,03,11.30
2016,10,09,04,04,11.30
2016,10,09,04,05,3.20
2016,10,09,04,06,3.20
2016,10,09,04,07,4.80
2016,10,09,04,08,4.80
2016,10,09,04,09,4.80
2016,10,09,04,10,3.20
2016,10,09,04,11,4.80
2016,10,09,04,12,4.80
2016,10,09,04,13,8.10
2016,10,09,04,14,9.60
2016,10,09,04,15,6.40
2016,10,09,04,16,6.40
2016,10,09,04,17,4.80
2016,10,09,04,18,4.80
2016,10,09,04,19,3.20
2016,10,09,04,20,6.40
2016,10,09,04,21,4.80
2016,10,09,04,22,4.80
2016,10,09,04,23,4.80
2016,10,09,04,24,4.80
2016,10,09,04,25,4.80
2016,10,09,04,26,6.40
2016,10,09,04,27,6.40
2016,10,09,04,28,6.40
2016,10,09,04,29,4.80
2016,10,09,04,30,4.80
2016,10,09,04,31,3.20
2016,10,09,04,32,3.20
2016,10,09,04,33,3.20
2016,10,09,04,34,4.80
2016,10,09,04,35,3.20
2016,10,09,04,36,3.20
2016,10,09,04,37,3.20
2016,10,09,04,38,1.60
2016,10,09,04,39,1.60
2016,10,09,04,44,1.60
2016,10,09,04,45,3.20
2016,10,09,04,46,1.60
2016,10,09,04,47,1.60
2016,10,09,04,49,1.60
2016,10,09,04,50,1.60
2016,10,09,04,51,1.60
2016,10,09,04,52,1.60
2016,10,09,04,55,3.20
2016,10,09,04,56,1.60
2016,10,09,04,57,1.60
2016,10,09,05,00,1.60
2016,10,09,05,01,4.80
2016,10,09,05,02,4.80
2016,10,09,05,03,3.20
2016,10,09,05,04,4.80
2016,10,09,05,05,4.80
2016,10,09,05,06,3.20
2016,10,09,05,07,3.20
2016,10,09,05,08,4.80
2016,10,09,05,09,3.20
2016,10,09,05,10,1.60
2016,10,09,05,13,1.60
2016,10,09,05,14,3.20
2016,10,09,05,15,4.80
2016,10,09,05,16,4.80
2016,10,09,05,17,1.60
2016,10,09,05,18,3.20
2016,10,09,05,19,4.80
2016,10,09,05,20,1.60
2016,10,09,05,21,3.20
2016,10,09,05,22,3.20
2016,10,09,05,23,3.20
2016,10,09,05,24,3.20
2016,10,09,05,25,3.20
2016,10,09,05,26,3.20
2016,10,09,05,27,1.60
2016,10,09,05,28,3.20
2016,10,09,05,29,1.60
2016,10,09,05,30,3.20
2016,10,09,05,31,1.60
2016,10,09,05,34,1.60
2016,10,09,05,35,1.60
2016,10,09,05,36,3.20
2016,10,09,05,37,3.20
2016,10,09,05,38,3.20
2016,10,09,05,39,3.20
2016,10,09,05,40,4.80
2016,10,09,05,41,4.80
2016,10,09,05,42,3.20
2016,10,09,05,43,3.20
2016,10,09,05,44,3.20
2016,10,09,05,45,4.80
2016,10,09,05,46,4.80
2016,10,09,05,47,4.80
2016,10,09,05,48,4.80
2016,10,09,05,49,4.80
2016,10,09,05,50,4.80
2016,10,09,05,51,4.80
2016,10,09,05,52,4.80
2016,10,09,05,53,3.20
2016,10,09,05,54,1.60
2016,10,09,05,56,3.20
2016,10,09,05,57,3.20
2016,10,09,05,58,1.60
2016,10,09,05,59,1.60
2016,10,09,06,00,1.60
2016,10,09,06,01,3.20
2016,10,09,06,02,3.20
2016,10,09,06,03,1.60
2016,10,09,06,04,1.60
2016,10,09,06,05,1.60
2016,10,09,06,06,1.60
2016,10,09,06,11,3.20
2016,10,09,06,12,1.60
2016,10,09,06,13,1.60
2016,10,09,06,14,3.20
2016,10,09,06,15,3.20
2016,10,09,06,16,4.80
2016,10,09,06,17,3.20
2016,10,09,06,18,3.20
2016,10,09,06,19,1.60
2016,10,09,06,20,3.20
2016,10,09,06,21,3.20
2016,10,09,06,22,1.60
2016,10,09,06,25,1.60
2016,10,09,06,26,3.20
2016,10,09,06,27,3.20
2016,10,09,06,28,3.20
2016,10,09,06,29,4.80
2016,10,09,06,30,3.20
2016,10,09,06,31,3.20
2016,10,09,06,32,1.60
2016,10,09,06,33,1.60
2016,10,09,06,34,3.20
2016,10,09,06,35,3.20
2016,10,09,06,36,1.60
2016,10,09,06,37,3.20
2016,10,09,06,38,3.20
2016,10,09,06,39,3.20
2016,10,09,06,40,3.20
2016,10,09,06,41,3.20
2016,10,09,06,42,1.60
2016,10,09,06,43,3.20
2016,10,09,06,44,1.60
2016,10,09,06,45,4.80
2016,10,09,06,46,4.80
2016,10,09,06,47,1.60
2016,10,09,06,48,4.80
2016,10,09,06,49,4.80
2016,10,09,06,50,4.80
2016,10,09,06,51,4.80
2016,10,09,06,52,4.80
2016,10,09,06,53,3.20
2016,10,09,06,54,3.20
2016,10,09,06,55,4.80
2016,10,09,06,56,3.20
2016,10,09,06,57,3.20
2016,10,09,06,58,3.20
2016,10,09,06,59,4.80
2016,10,09,07,00,3.20
2016,10,09,07,01,1.60
2016,10,09,07,02,3.20
2016,10,09,07,03,3.20
2016,10,09,07,04,1.60
2016,10,09,07,05,4.80
2016,10,09,07,06,3.20
2016,10,09,07,07,3.20
2016,10,09,07,08,3.20
2016,10,09,07,09,3.20
2016,10,09,07,10,3.20
2016,10,09,07,11,3.20
2016,10,09,07,12,3.20
2016,10,09,07,13,4.80
2016,10,09,07,14,3.20
2016,10,09,07,15,3.20
2016,10,09,07,16,3.20
2016,10,09,07,17,4.80
2016,10,09,07,18,3.20
2016,10,09,07,19,3.20
2016,10,09,07,20,3.20
2016,10,09,07,21,1.60
2016,10,09,07,22,3.20
2016,10,09,07,23,1.60
2016,10,09,07,24,1.60
2016,10,09,07,27,1.60
2016,10,09,07,28,1.60
2016,10,09,07,29,1.60
2016,10,09,07,30,1.60
2016,10,09,07,31,3.20
2016,10,09,07,32,3.20
2016,10,09,07,33,3.20
2016,10,09,07,34,1.60
2016,10,09,07,35,1.60
2016,10,09,07,36,3.20
2016,10,09,07,37,3.20
2016,10,09,07,38,1.60
2016,10,09,07,39,1.60
2016,10,09,07,40,3.20
2016,10,09,07,41,3.20
2016,10,09,07,42,3.20
2016,10,09,07,43,1.60
2016,10,09,07,44,1.60
2016,10,09,07,47,3.20
2016,10,09,07,48,3.20
2016,10,09,07,49,3.20
2016,10,09,07,50,3.20
2016,10,09,07,51,3.20
2016,10,09,07,52,4.80
2016,10,09,07,53,6.40
2016,10,09,07,54,4.80
2016,10,09,07,55,3.20
2016,10,09,07,56,4.80
2016,10,09,07,57,4.80
2016,10,09,07,58,3.20
2016,10,09,07,59,3.20
2016,10,09,08,00,3.20
2016,10,09,08,01,3.20
2016,10,09,08,02,4.80
2016,10,09,08,03,4.80
2016,10,09,08,04,3.20
2016,10,09,08,05,3.20
2016,10,09,08,06,3.20
2016,10,09,08,07,3.20
2016,10,09,08,08,4.80
2016,10,09,08,09,3.20
2016,10,09,08,10,3.20
2016,10,09,08,11,3.20
2016,10,09,08,12,3.20
2016,10,09,08,13,3.20
2016,10,09,08,14,3.20
2016,10,09,08,15,3.20
2016,10,09,08,16,4.80
2016,10,09,08,17,4.80
2016,10,09,08,18,3.20
2016,10,09,08,19,1.60
2016,10,09,08,20,3.20
2016,10,09,08,21,3.20
2016,10,09,08,22,4.80
2016,10,09,08,23,4.80
2016,10,09,08,24,3.20
2016,10,09,08,25,3.20
2016,10,09,08,26,4.80
2016,10,09,08,27,4.80
2016,10,09,08,28,4.80
2016,10,09,08,29,4.80
2016,10,09,08,30,3.20
2016,10,09,08,31,3.20
2016,10,09,08,32,4.80
2016,10,09,08,33,4.80
2016,10,09,08,34,3.20
2016,10,09,08,35,3.20
2016,10,09,08,36,4.80
2016,10,09,08,37,4.80
2016,10,09,08,38,4.80
2016,10,09,08,39,4.80
2016,10,09,08,40,4.80
2016,10,09,08,41,4.80
2016,10,09,08,42,3.20
2016,10,09,08,43,3.20
2016,10,09,08,44,3.20
2016,10,09,08,45,6.40
2016,10,09,08,46,6.40
2016,10,09,08,47,6.40
2016,10,09,08,48,6.40
2016,10,09,08,49,6.40
2016,10,09,08,50,6.40
2016,10,09,08,51,4.80
2016,10,09,08,52,4.80
2016,10,09,08,53,4.80
2016,10,09,08,54,4.80
2016,10,09,08,55,4.80
2016,10,09,08,56,4.80
2016,10,09,08,57,3.20
2016,10,09,08,58,1.60
2016,10,09,08,59,3.20
2016,10,09,09,00,3.20
2016,10,09,09,01,3.20
2016,10,09,09,02,4.80
2016,10,09,09,03,4.80
2016,10,09,09,04,4.80
2016,10,09,09,05,6.40
2016,10,09,09,06,4.80
2016,10,09,09,07,6.40
2016,10,09,09,08,4.80
2016,10,09,09,09,6.40
2016,10,09,09,10,8.10
2016,10,09,09,11,6.40
2016,10,09,09,12,4.80
2016,10,09,09,13,3.20
2016,10,09,09,14,3.20
2016,10,09,09,15,3.20
2016,10,09,09,16,1.60
2016,10,09,09,18,1.60
2016,10,09,09,19,1.60
2016,10,09,09,20,4.80
2016,10,09,09,21,4.80
2016,10,09,09,22,3.20
2016,10,09,09,23,3.20
2016,10,09,09,24,3.20
2016,10,09,09,25,3.20
2016,10,09,09,27,3.20
2016,10,09,09,28,3.20
2016,10,09,09,29,4.80
2016,10,09,09,30,6.40
2016,10,09,09,31,6.40
2016,10,09,09,32,3.20
2016,10,09,09,33,4.80
2016,10,09,09,34,3.20
2016,10,09,09,35,4.80
2016,10,09,09,36,4.80
2016,10,09,09,37,4.80
2016,10,09,09,38,3.20
2016,10,09,09,39,3.20
2016,10,09,09,40,1.60
2016,10,09,09,41,1.60
2016,10,09,09,44,3.20
2016,10,09,09,45,3.20
2016,10,09,09,46,3.20
2016,10,09,09,47,1.60
2016,10,09,09,48,1.60
2016,10,09,09,55,3.20
2016,10,09,09,56,3.20
2016,10,09,09,57,3.20
2016,10,09,09,58,3.20
2016,10,09,09,59,3.20
2016,10,09,10,00,1.60
2016,10,09,10,01,3.20
2016,10,09,10,02,1.60
2016,10,09,10,03,1.60
2016,10,09,10,04,3.20
2016,10,09,10,05,3.20
2016,10,09,10,14,1.60
2016,10,09,10,15,3.20
2016,10,09,10,16,4.80
2016,10,09,10,17,4.80
2016,10,09,10,18,4.80
2016,10,09,10,19,6.40
2016,10,09,10,20,9.60
2016,10,09,10,21,6.40
2016,10,09,10,22,6.40
2016,10,09,10,23,3.20
2016,10,09,10,24,4.80
2016,10,09,10,25,3.20
2016,10,09,10,26,4.80
2016,10,09,10,27,6.40
2016,10,09,10,28,6.40
2016,10,09,10,29,4.80
2016,10,09,10,30,6.40
2016,10,09,10,31,6.40
2016,10,09,10,32,6.40
2016,10,09,10,33,4.80
2016,10,09,10,34,6.40
2016,10,09,10,35,3.20
2016,10,09,10,36,1.60
2016,10,09,10,37,3.20
2016,10,09,10,38,3.20
2016,10,09,10,39,4.80
2016,10,09,10,40,4.80
2016,10,09,10,41,4.80
2016,10,09,10,42,4.80
2016,10,09,10,43,4.80
2016,10,09,10,44,9.60
2016,10,09,10,45,9.60
2016,10,09,10,46,4.80
2016,10,09,10,47,3.20
2016,10,09,10,48,3.20
2016,10,09,10,49,3.20
2016,10,09,10,50,1.60
2016,10,09,10,52,3.20
2016,10,09,10,53,4.80
2016,10,09,10,54,4.80
2016,10,09,10,55,3.20
2016,10,09,10,56,4.80
2016,10,09,10,57,4.80
2016,10,09,10,58,3.20
2016,10,09,10,59,1.60
2016,10,09,11,00,4.80
2016,10,09,11,01,6.40
2016,10,09,11,02,6.40
2016,10,09,11,03,4.80
2016,10,09,11,04,4.80
2016,10,09,11,05,4.80
2016,10,09,11,06,4.80
2016,10,09,11,07,6.40
2016,10,09,11,08,4.80
2016,10,09,11,09,4.80
2016,10,09,11,10,4.80
2016,10,09,11,11,4.80
2016,10,09,11,12,3.20
2016,10,09,11,13,4.80
2016,10,09,11,14,6.40
2016,10,09,11,15,6.40
2016,10,09,11,16,6.40
2016,10,09,11,17,4.80
2016,10,09,11,18,4.80
2016,10,09,11,19,4.80
2016,10,09,11,20,8.10
2016,10,09,11,21,9.60
2016,10,09,11,22,8.10
2016,10,09,11,23,4.80
2016,10,09,11,24,3.20
2016,10,09,11,25,1.60
2016,10,09,11,26,1.60
2016,10,09,11,27,3.20
2016,10,09,11,28,4.80
2016,10,09,11,29,6.40
2016,10,09,11,30,6.40
2016,10,09,11,31,3.20
2016,10,09,11,33,3.20
2016,10,09,11,34,1.60
2016,10,09,11,35,4.80
2016,10,09,11,36,6.40
2016,10,09,11,37,9.60
2016,10,09,11,38,6.40
2016,10,09,11,39,6.40
2016,10,09,11,40,3.20
2016,10,09,11,41,4.80
2016,10,09,11,42,9.60
2016,10,09,11,43,4.80
2016,10,09,11,44,1.60
2016,10,09,11,45,3.20
2016,10,09,11,46,3.20
2016,10,09,11,47,4.80
2016,10,09,11,48,4.80
2016,10,09,11,49,3.20
2016,10,09,11,50,3.20
2016,10,09,11,51,1.60
2016,10,09,11,53,4.80
2016,10,09,11,54,3.20
2016,10,09,11,55,3.20
2016,10,09,11,56,3.20
2016,10,09,11,57,3.20
2016,10,09,11,58,4.80
2016,10,09,11,59,3.20
2016,10,09,12,00,3.20
2016,10,09,12,01,6.40
2016,10,09,12,02,4.80
2016,10,09,12,03,4.80
2016,10,09,12,04,6.40
2016,10,09,12,05,3.20
2016,10,09,12,06,1.60
2016,10,09,12,07,1.60
2016,10,09,12,08,3.20
2016,10,09,12,09,1.60
2016,10,09,12,10,1.60
2016,10,09,12,11,3.20
2016,10,09,12,12,3.20
2016,10,09,12,13,4.80
2016,10,09,12,14,4.80
2016,10,09,12,15,6.40
2016,10,09,12,16,11.30
2016,10,09,12,17,11.30
2016,10,09,12,18,8.10
2016,10,09,12,19,6.40
2016,10,09,12,20,8.10
2016,10,09,12,21,11.30
2016,10,09,12,22,9.60
2016,10,09,12,23,8.10
2016,10,09,12,24,8.10
2016,10,09,12,25,8.10
2016,10,09,12,26,4.80
2016,10,09,12,27,6.40
2016,10,09,12,28,4.80
2016,10,09,12,29,4.80
2016,10,09,12,30,6.40
2016,10,09,12,31,6.40
2016,10,09,12,32,11.30
2016,10,09,12,33,8.10
2016,10,09,12,34,9.60
2016,10,09,12,35,8.10
2016,10,09,12,36,8.10
2016,10,09,12,37,6.40
2016,10,09,12,38,9.60
2016,10,09,12,39,9.60
2016,10,09,12,40,8.10
2016,10,09,12,41,11.30
2016,10,09,12,42,11.30
2016,10,09,12,43,11.30
2016,10,09,12,44,9.60
2016,10,09,12,45,11.30
2016,10,09,12,46,9.60
2016,10,09,12,47,9.60
2016,10,09,12,48,9.60
2016,10,09,12,49,8.10
2016,10,09,12,50,9.60
2016,10,09,12,51,8.10
2016,10,09,12,52,6.40
2016,10,09,12,53,9.60
2016,10,09,12,54,9.60
2016,10,09,12,55,8.10
2016,10,09,12,56,6.40
2016,10,09,12,57,6.40
2016,10,09,12,58,3.20
2016,10,09,12,59,8.10
2016,10,09,13,00,9.60
2016,10,09,13,01,8.10
2016,10,09,13,02,8.10
2016,10,09,13,03,6.40
2016,10,09,13,04,11.30
2016,10,09,13,05,6.40
2016,10,09,13,06,6.40
2016,10,09,13,07,6.40
2016,10,09,13,08,8.10
2016,10,09,13,09,11.30
2016,10,09,13,10,11.30
2016,10,09,13,11,11.30
2016,10,09,13,12,11.30
2016,10,09,13,13,12.90
2016,10,09,13,14,12.90
2016,10,09,13,15,11.30
2016,10,09,13,16,8.10
2016,10,09,13,17,11.30
2016,10,09,13,18,8.10
2016,10,09,13,19,6.40
2016,10,09,13,20,6.40
2016,10,09,13,21,9.60
2016,10,09,13,22,4.80
2016,10,09,13,23,8.10
2016,10,09,13,24,8.10
2016,10,09,13,25,9.60
2016,10,09,13,26,8.10
2016,10,09,13,27,8.10
2016,10,09,13,28,4.80
2016,10,09,13,29,4.80
2016,10,09,13,30,6.40
2016,10,09,13,31,6.40
2016,10,09,13,32,8.10
2016,10,09,13,33,4.80
2016,10,09,13,34,6.40
2016,10,09,13,35,6.40
2016,10,09,13,36,4.80
2016,10,09,13,37,4.80
2016,10,09,13,38,6.40
2016,10,09,13,39,6.40
2016,10,09,13,40,6.40
2016,10,09,13,41,6.40
2016,10,09,13,42,4.80
2016,10,09,13,43,4.80
2016,10,09,13,44,6.40
2016,10,09,13,45,4.80
2016,10,09,13,46,3.20
2016,10,09,13,47,6.40
2016,10,09,13,48,6.40
2016,10,09,13,49,1.60
2016,10,09,13,50,6.40
2016,10,09,13,51,4.80
2016,10,09,13,52,4.80
2016,10,09,13,53,3.20
2016,10,09,13,54,4.80
2016,10,09,13,55,3.20
2016,10,09,13,56,3.20
2016,10,09,13,57,3.20
2016,10,09,13,58,6.40
2016,10,09,13,59,3.20
2016,10,09,14,00,3.20
2016,10,09,14,01,4.80
2016,10,09,14,02,6.40
2016,10,09,14,03,6.40
2016,10,09,14,04,4.80
2016,10,09,14,05,3.20
2016,10,09,14,06,1.60
2016,10,09,14,07,3.20
2016,10,09,14,08,6.40
2016,10,09,14,09,8.10
2016,10,09,14,10,4.80
2016,10,09,14,11,1.60
2016,10,09,14,12,3.20
2016,10,09,14,13,1.60
2016,10,09,14,14,3.20
2016,10,09,14,15,4.80
2016,10,09,14,16,8.10
2016,10,09,14,17,9.60
2016,10,09,14,18,6.40
2016,10,09,14,19,8.10
2016,10,09,14,20,9.60
2016,10,09,14,21,8.10
2016,10,09,14,22,9.60
2016,10,09,14,23,9.60
2016,10,09,14,24,9.60
2016,10,09,14,25,9.60
2016,10,09,14,26,6.40
2016,10,09,14,27,6.40
2016,10,09,14,28,9.60
2016,10,09,14,29,9.60
2016,10,09,14,30,9.60
2016,10,09,14,31,9.60
2016,10,09,14,32,8.10
2016,10,09,14,33,9.60
2016,10,09,14,34,6.40
2016,10,09,14,35,6.40
2016,10,09,14,36,6.40
2016,10,09,14,37,6.40
2016,10,09,14,38,9.60
2016,10,09,14,39,9.60
2016,10,09,14,40,6.40
2016,10,09,14,41,3.20
2016,10,09,14,42,4.80
2016,10,09,14,43,4.80
2016,10,09,14,44,4.80
2016,10,09,14,45,1.60
2016,10,09,14,46,4.80
2016,10,09,14,47,4.80
2016,10,09,14,48,3.20
2016,10,09,14,49,4.80
2016,10,09,14,50,1.60
2016,10,09,14,51,4.80
2016,10,09,14,52,6.40
2016,10,09,14,53,6.40
2016,10,09,14,54,9.60
2016,10,09,14,55,12.90
2016,10,09,14,56,9.60
2016,10,09,14,57,8.10
2016,10,09,14,58,8.10
2016,10,09,14,59,9.60
2016,10,09,15,00,8.10
2016,10,09,15,01,8.10
2016,10,09,15,02,6.40
2016,10,09,15,03,6.40
2016,10,09,15,04,4.80
2016,10,09,15,05,6.40
2016,10,09,15,06,6.40
2016,10,09,15,07,6.40
2016,10,09,15,08,9.60
2016,10,09,15,09,4.80
2016,10,09,15,10,4.80
2016,10,09,15,11,4.80
2016,10,09,15,12,6.40
2016,10,09,15,13,6.40
2016,10,09,15,14,4.80
2016,10,09,15,15,3.20
2016,10,09,15,16,4.80
2016,10,09,15,17,3.20
2016,10,09,15,18,4.80
2016,10,09,15,19,3.20
2016,10,09,15,20,3.20
2016,10,09,15,21,3.20
2016,10,09,15,22,4.80
2016,10,09,15,23,4.80
2016,10,09,15,24,4.80
2016,10,09,15,25,4.80
2016,10,09,15,26,3.20
2016,10,09,15,27,6.40
2016,10,09,15,28,3.20
2016,10,09,15,29,3.20
2016,10,09,15,30,4.80
2016,10,09,15,31,4.80
2016,10,09,15,32,4.80
2016,10,09,15,33,4.80
2016,10,09,15,34,4.80
2016,10,09,15,35,4.80
2016,10,09,15,36,6.40
2016,10,09,15,37,6.40
2016,10,09,15,38,6.40
2016,10,09,15,39,3.20
2016,10,09,15,40,4.80
2016,10,09,15,41,6.40
2016,10,09,15,42,4.80
2016,10,09,15,43,1.60
2016,10,09,15,44,4.80
2016,10,09,15,45,3.20
2016,10,09,15,46,3.20
2016,10,09,15,47,4.80
2016,10,09,15,48,3.20
2016,10,09,15,49,4.80
2016,10,09,15,50,4.80
2016,10,09,15,51,3.20
2016,10,09,15,52,1.60
2016,10,09,15,53,1.60
2016,10,09,15,54,3.20
2016,10,09,15,55,6.40
2016,10,09,15,56,6.40
2016,10,09,15,57,6.40
2016,10,09,15,58,6.40
2016,10,09,15,59,1.60
2016,10,09,16,00,3.20
2016,10,09,16,01,1.60
2016,10,09,16,02,6.40
2016,10,09,16,03,4.80
2016,10,09,16,04,4.80
2016,10,09,16,05,4.80
2016,10,09,16,06,3.20
2016,10,09,16,07,6.40
2016,10,09,16,08,9.60
2016,10,09,16,09,11.30
2016,10,09,16,10,6.40
2016,10,09,16,11,4.80
2016,10,09,16,12,9.60
2016,10,09,16,13,9.60
2016,10,09,16,14,4.80
2016,10,09,16,15,3.20
2016,10,09,16,16,6.40
2016,10,09,16,17,9.60
2016,10,09,16,18,8.10
2016,10,09,16,19,4.80
2016,10,09,16,20,8.10
2016,10,09,16,21,8.10
2016,10,09,16,22,8.10
2016,10,09,16,23,4.80
2016,10,09,16,24,3.20
2016,10,09,16,25,4.80
2016,10,09,16,26,6.40
2016,10,09,16,27,6.40
2016,10,09,16,28,8.10
2016,10,09,16,29,6.40
2016,10,09,16,30,4.80
2016,10,09,16,31,4.80
2016,10,09,16,32,8.10
2016,10,09,16,33,9.60
2016,10,09,16,34,9.60
2016,10,09,16,35,4.80
2016,10,09,16,36,4.80
2016,10,09,16,37,4.80
2016,10,09,16,38,1.60
2016,10,09,16,39,3.20
2016,10,09,16,40,4.80
2016,10,09,16,41,3.20
2016,10,09,16,42,3.20
2016,10,09,16,43,3.20
2016,10,09,16,44,4.80
2016,10,09,16,45,3.20
2016,10,09,16,46,6.40
2016,10,09,16,47,8.10
2016,10,09,16,48,4.80
2016,10,09,16,49,4.80
2016,10,09,16,50,3.20
2016,10,09,16,51,3.20
2016,10,09,16,52,3.20
2016,10,09,16,53,6.40
2016,10,09,16,54,4.80
2016,10,09,16,55,4.80
2016,10,09,16,56,3.20
2016,10,09,16,57,6.40
2016,10,09,16,58,4.80
2016,10,09,16,59,4.80
2016,10,09,17,00,4.80
2016,10,09,17,01,6.40
2016,10,09,17,02,4.80
2016,10,09,17,03,4.80
2016,10,09,17,04,4.80
2016,10,09,17,05,4.80
2016,10,09,17,06,3.20
2016,10,09,17,08,1.60
2016,10,09,17,09,4.80
2016,10,09,17,10,3.20
2016,10,09,17,11,3.20
2016,10,09,17,12,3.20
2016,10,09,17,13,3.20
2016,10,09,17,14,3.20
2016,10,09,17,15,1.60
2016,10,09,17,16,1.60
2016,10,09,17,17,3.20
2016,10,09,17,18,4.80
2016,10,09,17,19,3.20
2016,10,09,17,20,3.20
2016,10,09,17,21,3.20
2016,10,09,17,22,3.20
2016,10,09,17,23,3.20
2016,10,09,17,24,4.80
2016,10,09,17,25,3.20
2016,10,09,17,26,3.20
2016,10,09,17,27,3.20
2016,10,09,17,28,3.20
2016,10,09,17,29,3.20
2016,10,09,17,30,1.60
2016,10,09,17,31,4.80
2016,10,09,17,32,8.10
2016,10,09,17,33,6.40
2016,10,09,17,34,9.60
2016,10,09,17,35,9.60
2016,10,09,17,36,11.30
2016,10,09,17,37,8.10
2016,10,09,17,38,6.40
2016,10,09,17,39,8.10
2016,10,09,17,40,6.40
2016,10,09,17,41,3.20
2016,10,09,17,42,4.80
2016,10,09,17,43,6.40
2016,10,09,17,44,6.40
2016,10,09,17,45,6.40
2016,10,09,17,46,4.80
2016,10,09,17,47,8.10
2016,10,09,17,48,6.40
2016,10,09,17,49,6.40
2016,10,09,17,50,6.40
2016,10,09,17,51,4.80
2016,10,09,17,52,3.20
2016,10,09,17,53,3.20
2016,10,09,17,54,3.20
2016,10,09,17,55,3.20
2016,10,09,17,56,3.20
2016,10,09,17,57,1.60
2016,10,09,17,58,3.20
2016,10,09,17,59,3.20
2016,10,09,18,00,3.20
2016,10,09,18,01,3.20
2016,10,09,18,02,3.20
2016,10,09,18,03,4.80
2016,10,09,18,04,3.20
2016,10,09,18,05,3.20
2016,10,09,18,06,3.20
2016,10,09,18,07,3.20
2016,10,09,18,08,3.20
2016,10,09,18,09,3.20
2016,10,09,18,10,3.20
2016,10,09,18,11,3.20
2016,10,09,18,12,3.20
2016,10,09,18,13,3.20
2016,10,09,18,14,1.60
2016,10,09,18,15,1.60
2016,10,09,18,16,1.60
2016,10,09,18,17,1.60
2016,10,09,18,22,1.60
2016,10,09,18,23,1.60
2016,10,09,18,24,1.60
2016,10,09,18,25,1.60
2016,10,09,18,26,1.60
2016,10,09,18,34,1.60
2016,10,09,18,42,3.20
2016,10,09,18,43,4.80
2016,10,09,18,44,4.80
2016,10,09,18,45,4.80
2016,10,09,18,46,4.80
2016,10,09,18,47,4.80
2016,10,09,18,48,3.20
2016,10,09,18,49,3.20
2016,10,09,18,50,3.20
2016,10,09,18,51,4.80
2016,10,09,18,52,4.80
2016,10,09,18,53,4.80
2016,10,09,18,54,3.20
2016,10,09,18,55,3.20
2016,10,09,18,56,3.20
2016,10,09,18,57,4.80
2016,10,09,18,58,4.80
2016,10,09,18,59,6.40
2016,10,09,19,00,6.40
2016,10,09,19,01,4.80
2016,10,09,19,02,4.80
2016,10,09,19,03,4.80
2016,10,09,19,04,4.80
2016,10,09,19,05,4.80
2016,10,09,19,06,6.40
2016,10,09,19,07,6.40
2016,10,09,19,08,6.40
2016,10,09,19,09,6.40
2016,10,09,19,10,6.40
2016,10,09,19,11,6.40
2016,10,09,19,12,6.40
2016,10,09,19,13,6.40
2016,10,09,19,14,4.80
2016,10,09,19,15,4.80
2016,10,09,19,16,3.20
2016,10,09,19,17,3.20
2016,10,09,19,18,3.20
2016,10,09,19,19,3.20
2016,10,09,19,20,3.20
2016,10,09,19,21,3.20
2016,10,09,19,22,3.20
2016,10,09,19,23,3.20
2016,10,09,19,24,3.20
2016,10,09,19,25,1.60
2016,10,09,19,27,1.60
2016,10,09,19,28,3.20
2016,10,09,19,29,3.20
2016,10,09,19,30,3.20
2016,10,09,19,31,3.20
2016,10,09,19,32,4.80
2016,10,09,19,33,3.20